| time (UTC) | temp F | wind direction | speed MPH | gust MPH | rain 1hr in | rain 24hr in | rain mn in | humidity % | barometer mb |
| 20260505211015 | 51 | 360 | 4.0 | 12.0 | 0.00 | 0.00 | 0.00 | 78 | 1013.8 |
| 20260505210552 | 51 | 360 | 4.0 | 12.0 | 0.00 | 0.00 | 0.00 | 77 | 1013.7 |
| 20260505210031 | 51 | 360 | 5.0 | 11.0 | 0.00 | 0.00 | 0.00 | 77 | 1013.7 |
| 20260505205514 | 51 | 360 | 4.0 | 16.0 | 0.00 | 0.00 | 0.00 | 76 | 1013.7 |
| 20260505205014 | 51 | 360 | 4.0 | 16.0 | 0.00 | 0.00 | 0.00 | 76 | 1013.8 |
| 20260505204535 | 51 | 360 | 3.0 | 10.0 | 0.00 | 0.00 | 0.00 | 76 | 1013.7 |
| 20260505204014 | 52 | 360 | 3.0 | 13.0 | 0.00 | 0.00 | 0.00 | 76 | 1013.7 |
| 20260505203513 | 52 | 360 | 4.0 | 13.0 | 0.00 | 0.00 | 0.00 | 76 | 1013.6 |
| 20260505203032 | 52 | 360 | 5.0 | 11.0 | 0.00 | 0.00 | 0.00 | 78 | 1013.6 |
| 20260505202512 | 52 | 360 | 2.0 | 6.0 | 0.00 | 0.00 | 0.00 | 80 | 1013.6 |
| 20260505202014 | 52 | 360 | 2.0 | 6.0 | 0.00 | 0.00 | 0.00 | 81 | 1013.5 |
| 20260505201535 | 52 | 360 | 1.0 | 6.0 | 0.00 | 0.00 | 0.00 | 82 | 1013.4 |
| 20260505201011 | 52 | 360 | 2.0 | 6.0 | 0.00 | 0.00 | 0.00 | 82 | 1013.5 |
| 20260505200518 | 52 | 360 | 2.0 | 5.0 | 0.00 | 0.00 | 0.00 | 83 | 1013.5 |
| 20260505200039 | 52 | 360 | 1.0 | 5.0 | 0.00 | 0.00 | 0.00 | 83 | 1013.4 |
| 20260505195516 | 52 | 360 | 2.0 | 5.0 | 0.00 | 0.00 | 0.00 | 83 | 1013.4 |
| 20260505195013 | 52 | 360 | 1.0 | 8.0 | 0.00 | 0.00 | 0.00 | 83 | 1013.3 |
| 20260505194532 | 52 | 360 | 2.0 | 8.0 | 0.00 | 0.00 | 0.00 | 83 | 1013.2 |
| 20260505194014 | 52 | 360 | 1.0 | 8.0 | 0.00 | 0.00 | 0.00 | 83 | 1013.2 |
| 20260505193513 | 52 | 360 | 1.0 | 5.0 | 0.00 | 0.00 | 0.00 | 83 | 1013.2 |
| 20260505193030 | 52 | 360 | 1.0 | 8.0 | 0.00 | 0.00 | 0.00 | 83 | 1013.1 |
| 20260505192516 | 53 | 360 | 1.0 | 9.0 | 0.00 | 0.00 | 0.00 | 83 | 1013.2 |
| 20260505192014 | 53 | 360 | 3.0 | 9.0 | 0.00 | 0.00 | 0.00 | 82 | 1012.9 |
| 20260505191529 | 53 | 360 | 2.0 | 9.0 | 0.00 | 0.00 | 0.00 | 82 | 1012.9 |
| 20260505191015 | 53 | 360 | 3.0 | 11.0 | 0.00 | 0.00 | 0.00 | 81 | 1013.0 |
| 20260505190514 | 53 | 360 | 3.0 | 11.0 | 0.00 | 0.00 | 0.00 | 81 | 1012.9 |
| 20260505190037 | 53 | 360 | 4.0 | 9.0 | 0.00 | 0.00 | 0.00 | 80 | 1012.9 |
| 20260505185514 | 54 | 360 | 2.0 | 11.0 | 0.00 | 0.00 | 0.00 | 79 | 1012.8 |
| 20260505185014 | 54 | 360 | 2.0 | 12.0 | 0.00 | 0.00 | 0.00 | 77 | 1012.9 |
| 20260505184530 | 54 | 42 | 4.0 | 12.0 | 0.00 | 0.00 | 0.00 | 75 | 1012.8 |
| 20260505184014 | 55 | 43 | 3.0 | 16.0 | 0.00 | 0.00 | 0.00 | 73 | 1012.6 |
| 20260505183513 | 55 | 56 | 5.0 | 16.0 | 0.00 | 0.00 | 0.00 | 73 | 1012.5 |
| 20260505183032 | 55 | 57 | 5.0 | 16.0 | 0.00 | 0.00 | 0.00 | 72 | 1012.4 |
| 20260505182513 | 56 | 73 | 3.0 | 12.0 | 0.00 | 0.00 | 0.00 | 70 | 1012.5 |
| 20260505182013 | 56 | 45 | 2.0 | 6.0 | 0.00 | 0.00 | 0.00 | 67 | 1012.5 |
| 20260505181529 | 56 | 86 | 1.0 | 7.0 | 0.00 | 0.00 | 0.00 | 67 | 1012.4 |
| 20260505181014 | 56 | 71 | 2.0 | 7.0 | 0.00 | 0.00 | 0.00 | 69 | 1012.4 |
| 20260505180513 | 57 | 163 | 1.0 | 5.0 | 0.00 | 0.00 | 0.00 | 71 | 1012.4 |
| 20260505180034 | 57 | 163 | 2.0 | 5.0 | 0.00 | 0.00 | 0.00 | 71 | 1012.3 |
| 20260505175515 | 57 | 163 | 2.0 | 5.0 | 0.00 | 0.00 | 0.00 | 71 | 1012.3 |
| 20260505175017 | 57 | 360 | 1.0 | 4.0 | 0.00 | 0.00 | 0.00 | 70 | 1012.1 |
| 20260505174539 | 57 | 360 | 1.0 | 4.0 | 0.00 | 0.00 | 0.00 | 70 | 1012.2 |
| 20260505174018 | 57 | 360 | 2.0 | 4.0 | 0.00 | 0.00 | 0.00 | 69 | 1012.2 |
| 20260505173513 | 57 | 360 | 2.0 | 4.0 | 0.00 | 0.00 | 0.00 | 68 | 1012.2 |
| 20260505173030 | 57 | 360 | 1.0 | 4.0 | 0.00 | 0.00 | 0.00 | 68 | 1012.1 |
| 20260505172513 | 57 | 360 | 0.0 | 2.0 | 0.00 | 0.00 | 0.00 | 67 | 1012.1 |
| 20260505172016 | 58 | 0 | 0.0 | 0.0 | 0.00 | 0.00 | 0.00 | 67 | 1012.1 |
| 20260505171529 | 58 | 0 | 0.0 | 0.0 | 0.00 | 0.00 | 0.00 | 67 | 1012.2 |
| 20260505171012 | 58 | 0 | 0.0 | 0.0 | 0.00 | 0.00 | 0.00 | 66 | 1012.1 |
| 20260505170515 | 58 | 0 | 0.0 | 3.0 | 0.00 | 0.00 | 0.00 | 66 | 1012.2 |
| 20260505170030 | 58 | 0 | 0.0 | 3.0 | 0.00 | 0.00 | 0.00 | 65 | 1012.2 |
| 20260505165514 | 58 | 360 | 1.0 | 4.0 | 0.00 | 0.00 | 0.00 | 64 | 1012.2 |
| 20260505165016 | 58 | 360 | 2.0 | 4.0 | 0.00 | 0.00 | 0.00 | 64 | 1012.2 |
| 20260505164528 | 58 | 360 | 1.0 | 2.0 | 0.00 | 0.00 | 0.00 | 65 | 1012.2 |
| 20260505164014 | 58 | 0 | 0.0 | 2.0 | 0.00 | 0.00 | 0.00 | 65 | 1012.2 |
| 20260505163513 | 58 | 360 | 0.0 | 2.0 | 0.00 | 0.00 | 0.00 | 64 | 1012.2 |
| 20260505163036 | 59 | 360 | 0.0 | 5.0 | 0.00 | 0.00 | 0.00 | 63 | 1012.2 |
| 20260505162513 | 59 | 0 | 0.0 | 5.0 | 0.00 | 0.00 | 0.00 | 63 | 1012.2 |
| 20260505162012 | 59 | 360 | 2.0 | 5.0 | 0.00 | 0.00 | 0.00 | 62 | 1012.1 |
| 20260505161533 | 59 | 161 | 0.0 | 4.0 | 0.00 | 0.00 | 0.00 | 62 | 1012.1 |
| 20260505161014 | 59 | 161 | 0.0 | 4.0 | 0.00 | 0.00 | 0.00 | 62 | 1012.0 |
| 20260505160514 | 59 | 161 | 0.0 | 5.0 | 0.00 | 0.00 | 0.00 | 62 | 1012.0 |
| 20260505153029 | 60 | 126 | 2.0 | 6.0 | 0.00 | 0.00 | 0.00 | 58 | 1012.2 |
| 20260505152514 | 60 | 90 | 1.0 | 6.0 | 0.00 | 0.00 | 0.00 | 58 | 1012.2 |
| 20260505152018 | 60 | 90 | 2.0 | 6.0 | 0.00 | 0.00 | 0.00 | 57 | 1012.2 |
| 20260505151532 | 60 | 41 | 1.0 | 10.0 | 0.00 | 0.00 | 0.00 | 56 | 1012.2 |
| 20260505151011 | 60 | 38 | 2.0 | 10.0 | 0.00 | 0.00 | 0.00 | 55 | 1012.2 |
| 20260505150514 | 61 | 28 | 3.0 | 10.0 | 0.00 | 0.00 | 0.00 | 55 | 1012.3 |
| 20260505140513 | 61 | 16 | 1.0 | 8.0 | 0.00 | 0.00 | 0.00 | 54 | 1012.5 |
| 20260505125015 | 61 | 40 | 3.0 | 12.0 | 0.00 | 0.00 | 0.00 | 53 | 1012.6 |
| 20260505124540 | 61 | 51 | 3.0 | 12.0 | 0.00 | 0.00 | 0.00 | 55 | 1012.7 |
| 20260505124017 | 62 | 324 | 3.0 | 9.0 | 0.00 | 0.00 | 0.00 | 52 | 1012.6 |
| 20260505123517 | 63 | 352 | 4.0 | 9.0 | 0.00 | 0.00 | 0.00 | 51 | 1012.6 |
| 20260505123038 | 63 | 5 | 0.0 | 8.0 | 0.00 | 0.00 | 0.00 | 52 | 1012.5 |
| 20260505122511 | 62 | 5 | 3.0 | 8.0 | 0.00 | 0.00 | 0.00 | 51 | 1012.6 |
| 20260505122016 | 62 | 352 | 3.0 | 7.0 | 0.00 | 0.00 | 0.00 | 52 | 1012.7 |
| 20260505121531 | 62 | 352 | 2.0 | 10.0 | 0.00 | 0.00 | 0.00 | 54 | 1012.6 |
| 20260505121013 | 62 | 29 | 2.0 | 10.0 | 0.00 | 0.00 | 0.00 | 55 | 1012.8 |
| 20260505120513 | 62 | 5 | 4.0 | 9.0 | 0.00 | 0.00 | 0.00 | 56 | 1012.7 |
| 20260505120030 | 61 | 5 | 0.0 | 8.0 | 0.00 | 0.00 | 0.00 | 53 | 1012.8 |
| 20260505115513 | 61 | 360 | 3.0 | 8.0 | 0.00 | 0.00 | 0.00 | 54 | 1012.8 |
| 20260505115014 | 62 | 341 | 1.0 | 8.0 | 0.00 | 0.00 | 0.00 | 52 | 1012.8 |
| 20260505114529 | 63 | 348 | 2.0 | 6.0 | 0.00 | 0.00 | 0.00 | 54 | 1012.8 |
| 20260505114017 | 62 | 49 | 2.0 | 6.0 | 0.00 | 0.00 | 0.00 | 55 | 1012.8 |
| 20260505113512 | 61 | 65 | 2.0 | 9.0 | 0.00 | 0.00 | 0.00 | 54 | 1013.0 |
| 20260505113031 | 61 | 67 | 2.0 | 9.0 | 0.00 | 0.00 | 0.00 | 53 | 1013.1 |
| 20260505112517 | 61 | 360 | 3.0 | 9.0 | 0.00 | 0.00 | 0.00 | 56 | 1013.1 |
| 20260505112014 | 61 | 352 | 2.0 | 6.0 | 0.00 | 0.00 | 0.00 | 55 | 1013.2 |
| 20260505111536 | 61 | 352 | 2.0 | 6.0 | 0.00 | 0.00 | 0.00 | 55 | 1013.3 |
| 20260505111015 | 61 | 40 | 2.0 | 8.0 | 0.00 | 0.00 | 0.00 | 56 | 1013.3 |
| 20260505110514 | 60 | 330 | 3.0 | 8.0 | 0.00 | 0.00 | 0.00 | 55 | 1013.3 |
| 20260505102012 | 59 | 9 | 3.0 | 9.0 | 0.00 | 0.00 | 0.00 | 55 | 1013.4 |
| 20260505101531 | 59 | 24 | 3.0 | 9.0 | 0.00 | 0.00 | 0.00 | 56 | 1013.4 |
| 20260505101013 | 59 | 0 | 2.0 | 7.0 | 0.00 | 0.00 | 0.00 | 56 | 1013.5 |
| 20260505100517 | 58 | 48 | 1.0 | 8.0 | 0.00 | 0.00 | 0.00 | 57 | 1013.5 |
| 20260505100034 | 58 | 65 | 3.0 | 8.0 | 0.00 | 0.00 | 0.00 | 58 | 1013.6 |
| 20260505095513 | 58 | 350 | 3.0 | 8.0 | 0.00 | 0.00 | 0.00 | 57 | 1013.5 |
| 20260505095012 | 58 | 327 | 2.0 | 8.0 | 0.00 | 0.00 | 0.00 | 59 | 1013.6 |
| 20260505094535 | 58 | 26 | 3.0 | 10.0 | 0.00 | 0.00 | 0.00 | 57 | 1013.6 |
| 20260505094013 | 58 | 31 | 3.0 | 11.0 | 0.00 | 0.00 | 0.00 | 58 | 1013.6 |
| 20260505093512 | 57 | 350 | 1.0 | 11.0 | 0.00 | 0.00 | 0.00 | 60 | 1013.6 |
| 20260505093030 | 57 | 9 | 4.0 | 10.0 | 0.00 | 0.00 | 0.00 | 57 | 1013.6 |
| 20260505092515 | 57 | 9 | 4.0 | 11.0 | 0.00 | 0.00 | 0.00 | 58 | 1013.6 |
| 20260505092015 | 57 | 11 | 3.0 | 11.0 | 0.00 | 0.00 | 0.00 | 60 | 1013.6 |
| 20260505091532 | 57 | 323 | 2.0 | 9.0 | 0.00 | 0.00 | 0.00 | 62 | 1013.6 |
| 20260505091017 | 56 | 16 | 3.0 | 8.0 | 0.00 | 0.00 | 0.00 | 63 | 1013.7 |
| 20260505090514 | 56 | 317 | 3.0 | 9.0 | 0.00 | 0.00 | 0.00 | 65 | 1013.7 |
| 20260505090036 | 56 | 337 | 3.0 | 9.0 | 0.00 | 0.00 | 0.00 | 64 | 1013.6 |
| 20260505085513 | 56 | 360 | 4.0 | 12.0 | 0.00 | 0.00 | 0.00 | 68 | 1013.6 |
| 20260505085013 | 56 | 17 | 5.0 | 12.0 | 0.00 | 0.00 | 0.00 | 67 | 1013.6 |
| 20260505084532 | 55 | 5 | 6.0 | 13.0 | 0.00 | 0.00 | 0.00 | 70 | 1013.6 |
| 20260505084016 | 55 | 5 | 5.0 | 13.0 | 0.00 | 0.00 | 0.00 | 71 | 1013.6 |
| 20260505083512 | 55 | 32 | 5.0 | 10.0 | 0.00 | 0.00 | 0.00 | 76 | 1013.6 |
| 20260505083030 | 54 | 360 | 3.0 | 12.0 | 0.00 | 0.00 | 0.00 | 78 | 1013.6 |
| 20260505082512 | 54 | 360 | 5.0 | 12.0 | 0.00 | 0.00 | 0.00 | 78 | 1013.6 |
| 20260505082018 | 54 | 18 | 3.0 | 10.0 | 0.00 | 0.00 | 0.00 | 79 | 1013.7 |
| 20260505081542 | 53 | 348 | 5.0 | 11.0 | 0.00 | 0.00 | 0.00 | 80 | 1013.7 |
| 20260505081012 | 53 | 360 | 4.0 | 11.0 | 0.00 | 0.00 | 0.00 | 80 | 1013.7 |
| 20260505080514 | 53 | 13 | 6.0 | 11.0 | 0.00 | 0.00 | 0.00 | 81 | 1013.7 |
| 20260505080036 | 53 | 15 | 4.0 | 10.0 | 0.00 | 0.00 | 0.00 | 82 | 1013.8 |
| 20260505075513 | 52 | 360 | 4.0 | 10.0 | 0.00 | 0.00 | 0.00 | 82 | 1013.7 |
| 20260505075016 | 52 | 360 | 3.0 | 9.0 | 0.00 | 0.00 | 0.00 | 82 | 1013.8 |
| 20260505074529 | 52 | 17 | 4.0 | 9.0 | 0.00 | 0.00 | 0.00 | 83 | 1013.8 |
| 20260505074013 | 52 | 360 | 3.0 | 9.0 | 0.00 | 0.00 | 0.00 | 82 | 1013.7 |
| 20260505073512 | 52 | 360 | 3.0 | 10.0 | 0.00 | 0.00 | 0.00 | 83 | 1013.7 |
| 20260505073041 | 52 | 360 | 3.0 | 10.0 | 0.00 | 0.00 | 0.00 | 83 | 1013.8 |
| 20260505072512 | 52 | 360 | 4.0 | 10.0 | 0.00 | 0.00 | 0.00 | 83 | 1013.8 |
| 20260505072011 | 51 | 360 | 4.0 | 9.0 | 0.00 | 0.00 | 0.00 | 84 | 1013.8 |
| 20260505071546 | 51 | 5 | 4.0 | 11.0 | 0.00 | 0.00 | 0.00 | 84 | 1013.8 |
| 20260505071014 | 51 | 5 | 4.0 | 11.0 | 0.00 | 0.00 | 0.00 | 84 | 1013.8 |
| 20260505070511 | 51 | 24 | 4.0 | 9.0 | 0.00 | 0.00 | 0.00 | 85 | 1013.7 |
| 20260505070032 | 51 | 24 | 3.0 | 9.0 | 0.00 | 0.00 | 0.00 | 85 | 1013.8 |
| 20260505065511 | 51 | 17 | 2.0 | 8.0 | 0.00 | 0.00 | 0.00 | 85 | 1014.0 |
| 20260505065013 | 51 | 340 | 2.0 | 8.0 | 0.00 | 0.00 | 0.00 | 85 | 1013.9 |
| 20260505064531 | 51 | 336 | 3.0 | 7.0 | 0.00 | 0.00 | 0.00 | 86 | 1014.0 |
| 20260505064016 | 51 | 5 | 3.0 | 7.0 | 0.00 | 0.00 | 0.00 | 87 | 1014.0 |
| 20260505063513 | 51 | 12 | 3.0 | 5.0 | 0.00 | 0.00 | 0.00 | 88 | 1014.0 |
| 20260505063031 | 50 | 45 | 2.0 | 5.0 | 0.00 | 0.00 | 0.00 | 88 | 1014.0 |
| 20260505062512 | 50 | 52 | 1.0 | 4.0 | 0.00 | 0.00 | 0.00 | 88 | 1014.0 |
| 20260505062011 | 50 | 52 | 2.0 | 4.0 | 0.00 | 0.00 | 0.00 | 88 | 1014.1 |
| 20260505061532 | 50 | 0 | 2.0 | 4.0 | 0.00 | 0.00 | 0.00 | 89 | 1014.0 |
| 20260505061017 | 50 | 53 | 1.0 | 3.0 | 0.00 | 0.00 | 0.00 | 89 | 1014.1 |
| 20260505060515 | 49 | 53 | 1.0 | 3.0 | 0.00 | 0.00 | 0.00 | 89 | 1014.1 |
| 20260505060028 | 49 | 53 | 2.0 | 3.0 | 0.00 | 0.00 | 0.00 | 89 | 1014.2 |
| 20260505055515 | 49 | 53 | 1.0 | 3.0 | 0.00 | 0.00 | 0.00 | 89 | 1014.1 |
| 20260505055014 | 49 | 53 | 0.0 | 0.0 | 0.00 | 0.00 | 0.00 | 89 | 1014.1 |
| 20260505054548 | 49 | 0 | 0.0 | 0.0 | 0.00 | 0.00 | 0.00 | 90 | 1014.1 |
| 20260505054013 | 48 | 0 | 0.0 | 0.0 | 0.00 | 0.00 | 0.00 | 89 | 1014.1 |
| 20260505053515 | 48 | 0 | 0.0 | 2.0 | 0.00 | 0.00 | 0.00 | 89 | 1014.1 |
| 20260505053038 | 47 | 0 | 0.0 | 2.0 | 0.00 | 0.00 | 0.00 | 88 | 1014.3 |
| 20260505052515 | 47 | 0 | 0.0 | 2.0 | 0.00 | 0.00 | 0.00 | 88 | 1014.3 |
| 20260505052013 | 47 | 0 | 1.0 | 2.0 | 0.00 | 0.00 | 0.00 | 88 | 1014.1 |
| 20260505051538 | 47 | 0 | 0.0 | 1.0 | 0.00 | 0.00 | 0.00 | 88 | 1014.1 |
| 20260505051016 | 47 | 0 | 0.0 | 0.0 | 0.00 | 0.00 | 0.00 | 88 | 1014.2 |
| 20260505050518 | 47 | 0 | 0.0 | 2.0 | 0.00 | 0.00 | 0.00 | 88 | 1014.1 |
| 20260505041530 | 49 | 0 | 0.0 | 3.0 | 0.00 | 0.00 | 0.00 | 88 | 1014.1 |
| 20260505041013 | 49 | 360 | 1.0 | 3.0 | 0.00 | 0.00 | 0.00 | 88 | 1014.1 |
| 20260505040514 | 49 | 360 | 0.0 | 2.0 | 0.00 | 0.00 | 0.00 | 88 | 1014.1 |
| 20260505040036 | 49 | 360 | 0.0 | 2.0 | 0.00 | 0.00 | 0.00 | 88 | 1014.1 |
| 20260505035513 | 49 | 360 | 0.0 | 2.0 | 0.00 | 0.00 | 0.00 | 88 | 1014.2 |
| 20260505035018 | 50 | 0 | 0.0 | 2.0 | 0.00 | 0.00 | 0.00 | 88 | 1014.1 |
| 20260505034532 | 50 | 0 | 0.0 | 2.0 | 0.00 | 0.00 | 0.00 | 88 | 1014.2 |
| 20260505034020 | 50 | 0 | 0.0 | 2.0 | 0.00 | 0.00 | 0.00 | 88 | 1014.3 |
| 20260505033513 | 50 | 360 | 0.0 | 2.0 | 0.00 | 0.00 | 0.00 | 88 | 1014.3 |
| 20260505033033 | 50 | 0 | 0.0 | 2.0 | 0.00 | 0.00 | 0.00 | 88 | 1014.4 |
| 20260505032511 | 50 | 0 | 0.0 | 2.0 | 0.00 | 0.00 | 0.00 | 88 | 1014.4 |
| 20260505032018 | 50 | 360 | 0.0 | 2.0 | 0.00 | 0.00 | 0.00 | 88 | 1014.3 |
| 20260505031533 | 50 | 0 | 0.0 | 2.0 | 0.00 | 0.00 | 0.00 | 88 | 1014.3 |
| 20260505031018 | 50 | 0 | 0.0 | 2.0 | 0.00 | 0.00 | 0.00 | 88 | 1014.3 |
| 20260505030515 | 50 | 360 | 1.0 | 2.0 | 0.00 | 0.00 | 0.00 | 88 | 1014.4 |
| 20260505030032 | 50 | 0 | 0.0 | 2.0 | 0.00 | 0.00 | 0.00 | 88 | 1014.3 |
| 20260505025514 | 50 | 360 | 0.0 | 3.0 | 0.00 | 0.00 | 0.00 | 88 | 1014.2 |
| 20260505025014 | 50 | 360 | 0.0 | 3.0 | 0.00 | 0.00 | 0.00 | 87 | 1014.1 |
| 20260505024532 | 50 | 0 | 1.0 | 2.0 | 0.00 | 0.00 | 0.00 | 87 | 1014.1 |
| 20260505024013 | 50 | 0 | 0.0 | 2.0 | 0.00 | 0.00 | 0.00 | 87 | 1014.2 |
| 20260505023513 | 50 | 360 | 0.0 | 3.0 | 0.00 | 0.00 | 0.00 | 87 | 1014.2 |
| 20260505023031 | 50 | 360 | 1.0 | 3.0 | 0.00 | 0.00 | 0.00 | 87 | 1014.3 |
| 20260505022513 | 50 | 360 | 0.0 | 3.0 | 0.00 | 0.00 | 0.00 | 87 | 1014.3 |
| 20260505022011 | 50 | 0 | 0.0 | 4.0 | 0.00 | 0.00 | 0.00 | 87 | 1014.3 |
| 20260505021528 | 50 | 360 | 2.0 | 4.0 | 0.00 | 0.00 | 0.00 | 87 | 1014.5 |
| 20260505021010 | 50 | 360 | 1.0 | 4.0 | 0.00 | 0.00 | 0.00 | 87 | 1014.4 |
| 20260505020511 | 50 | 360 | 1.0 | 4.0 | 0.00 | 0.00 | 0.00 | 87 | 1014.5 |
| 20260505020030 | 50 | 360 | 0.0 | 3.0 | 0.00 | 0.00 | 0.00 | 87 | 1014.5 |
| 20260505015512 | 50 | 360 | 0.0 | 2.0 | 0.00 | 0.00 | 0.00 | 87 | 1014.6 |
| 20260505015017 | 50 | 360 | 1.0 | 3.0 | 0.00 | 0.00 | 0.00 | 87 | 1014.5 |
| 20260505014531 | 50 | 0 | 0.0 | 3.0 | 0.00 | 0.00 | 0.00 | 87 | 1014.6 |
| 20260505014013 | 51 | 360 | 0.0 | 3.0 | 0.00 | 0.00 | 0.00 | 86 | 1014.6 |
| 20260505013512 | 51 | 360 | 1.0 | 4.0 | 0.00 | 0.00 | 0.00 | 86 | 1014.6 |
| 20260505013030 | 51 | 360 | 1.0 | 4.0 | 0.00 | 0.00 | 0.00 | 86 | 1014.7 |
| 20260505012513 | 51 | 360 | 0.0 | 3.0 | 0.00 | 0.00 | 0.00 | 86 | 1014.7 |
| 20260505012013 | 51 | 360 | 1.0 | 3.0 | 0.00 | 0.00 | 0.00 | 86 | 1014.6 |
| 20260505011531 | 51 | 360 | 1.0 | 3.0 | 0.00 | 0.00 | 0.00 | 86 | 1014.6 |
| 20260505011012 | 51 | 360 | 1.0 | 4.0 | 0.00 | 0.00 | 0.00 | 86 | 1014.6 |
| 20260505010514 | 51 | 360 | 0.0 | 4.0 | 0.00 | 0.00 | 0.00 | 86 | 1014.7 |
| 20260505010031 | 51 | 360 | 2.0 | 4.0 | 0.00 | 0.00 | 0.00 | 86 | 1014.8 |
| 20260505005511 | 51 | 360 | 1.0 | 4.0 | 0.00 | 0.00 | 0.00 | 86 | 1014.8 |
| 20260505005010 | 51 | 360 | 1.0 | 4.0 | 0.00 | 0.00 | 0.00 | 86 | 1014.9 |
| 20260505004534 | 51 | 360 | 1.0 | 4.0 | 0.00 | 0.00 | 0.00 | 86 | 1014.9 |
| 20260505004012 | 51 | 360 | 1.0 | 4.0 | 0.00 | 0.00 | 0.00 | 86 | 1015.0 |
| 20260505003514 | 51 | 360 | 1.0 | 4.0 | 0.00 | 0.00 | 0.00 | 86 | 1015.0 |
| 20260505003031 | 51 | 0 | 1.0 | 5.0 | 0.00 | 0.00 | 0.00 | 86 | 1015.1 |
| 20260505002514 | 51 | 360 | 1.0 | 5.0 | 0.00 | 0.00 | 0.00 | 86 | 1015.2 |
| 20260505002014 | 51 | 360 | 0.0 | 2.0 | 0.00 | 0.00 | 0.00 | 86 | 1015.3 |
| 20260505001530 | 51 | 360 | 0.0 | 4.0 | 0.00 | 0.00 | 0.00 | 86 | 1015.3 |
| 20260505001014 | 51 | 0 | 1.0 | 4.0 | 0.00 | 0.00 | 0.00 | 86 | 1015.3 |
| 20260505000514 | 51 | 360 | 1.0 | 3.0 | 0.00 | 0.00 | 0.00 | 86 | 1015.3 |
| 20260505000032 | 51 | 360 | 0.0 | 4.0 | 0.00 | 0.00 | 0.00 | 86 | 1015.5 |
| 20260504235513 | 51 | 0 | 0.0 | 4.0 | 0.00 | 0.00 | 0.00 | 86 | 1015.4 |
| 20260504235011 | 51 | 0 | 0.0 | 4.0 | 0.00 | 0.00 | 0.00 | 85 | 1015.3 |
| 20260504234531 | 51 | 360 | 1.0 | 4.0 | 0.00 | 0.00 | 0.00 | 85 | 1015.2 |
| 20260504234010 | 51 | 360 | 1.0 | 4.0 | 0.00 | 0.00 | 0.00 | 85 | 1015.2 |
| 20260504233513 | 51 | 360 | 1.0 | 4.0 | 0.00 | 0.00 | 0.00 | 85 | 1015.3 |
| 20260504233031 | 51 | 0 | 1.0 | 4.0 | 0.00 | 0.00 | 0.00 | 85 | 1015.3 |
| 20260504232512 | 52 | 360 | 1.0 | 5.0 | 0.00 | 0.00 | 0.00 | 85 | 1015.2 |
| 20260504232015 | 52 | 360 | 2.0 | 6.0 | 0.00 | 0.00 | 0.00 | 85 | 1015.2 |
| 20260504231530 | 52 | 360 | 2.0 | 6.0 | 0.00 | 0.00 | 0.00 | 85 | 1015.4 |
| 20260504231012 | 52 | 360 | 2.0 | 5.0 | 0.00 | 0.00 | 0.00 | 85 | 1015.4 |
| 20260504230515 | 52 | 360 | 1.0 | 4.0 | 0.00 | 0.00 | 0.00 | 85 | 1015.4 |
| 20260504230035 | 52 | 360 | 2.0 | 5.0 | 0.00 | 0.00 | 0.00 | 85 | 1015.4 |
| 20260504225516 | 52 | 360 | 1.0 | 5.0 | 0.00 | 0.00 | 0.00 | 85 | 1015.5 |
| 20260504225014 | 52 | 360 | 1.0 | 5.0 | 0.00 | 0.00 | 0.00 | 85 | 1015.5 |
| 20260504224531 | 52 | 0 | 1.0 | 5.0 | 0.00 | 0.00 | 0.00 | 85 | 1015.5 |
| 20260504224012 | 52 | 360 | 1.0 | 4.0 | 0.00 | 0.00 | 0.00 | 84 | 1015.5 |
| 20260504223510 | 52 | 360 | 1.0 | 5.0 | 0.00 | 0.00 | 0.00 | 84 | 1015.5 |
| 20260504223029 | 52 | 360 | 1.0 | 6.0 | 0.00 | 0.00 | 0.00 | 84 | 1015.5 |
| 20260504222513 | 52 | 360 | 2.0 | 6.0 | 0.00 | 0.00 | 0.00 | 84 | 1015.5 |
| 20260504222014 | 52 | 360 | 2.0 | 6.0 | 0.00 | 0.00 | 0.00 | 84 | 1015.5 |
| 20260504221530 | 53 | 360 | 1.0 | 5.0 | 0.00 | 0.00 | 0.00 | 84 | 1015.6 |
| 20260504221013 | 53 | 360 | 2.0 | 5.0 | 0.00 | 0.00 | 0.00 | 84 | 1015.5 |
| 20260504220513 | 53 | 0 | 2.0 | 5.0 | 0.00 | 0.00 | 0.00 | 83 | 1015.8 |
| 20260504220029 | 53 | 360 | 2.0 | 5.0 | 0.00 | 0.00 | 0.00 | 83 | 1015.7 |
| 20260504215514 | 53 | 360 | 2.0 | 6.0 | 0.00 | 0.00 | 0.00 | 83 | 1015.6 |
| 20260504215011 | 53 | 360 | 1.0 | 6.0 | 0.00 | 0.00 | 0.00 | 83 | 1015.7 |
| 20260504214530 | 53 | 360 | 2.0 | 6.0 | 0.00 | 0.00 | 0.00 | 82 | 1015.5 |
| 20260504214010 | 53 | 360 | 1.0 | 4.0 | 0.00 | 0.00 | 0.00 | 82 | 1015.5 |
| 20260504213514 | 53 | 360 | 1.0 | 5.0 | 0.00 | 0.00 | 0.00 | 82 | 1015.6 |
| 20260504213034 | 54 | 360 | 2.0 | 8.0 | 0.00 | 0.00 | 0.00 | 82 | 1015.6 |
| 20260504212515 | 54 | 360 | 2.0 | 8.0 | 0.00 | 0.00 | 0.00 | 82 | 1015.7 |
| 20260504212014 | 54 | 360 | 2.0 | 8.0 | 0.00 | 0.00 | 0.00 | 82 | 1015.7 |
| 20260504211531 | 54 | 0 | 1.0 | 5.0 | 0.00 | 0.00 | 0.00 | 81 | 1015.7 |